Location: La Oliva
(42.2466°N, 2.9955°E)
Time: 10:26:21
(UTC+00:00)

MOS 1 - Pass Details

Date: 22 April 2021
Orbit: 879 x 890 km, 99.1° (Epoch: 10 May)

Event Time Altitude Azimuth Distance (km) Brightness Sun altitude
Exits shadow 19:30:53 - 150° (SSE) 2,798 6.4 -10.0°
Reaches altitude 10° 19:31:36 10° 149° (SSE) 2,528 6.2 -10.1°
Maximum altitude 19:37:06 59° 71° (ENE) 1,010 4.4 -11.0°
Drops below altitude 10° 19:42:39 10° 353° (N) 2,547 7.2 -11.9°
Sets 19:45:05 0° 350° (N) 3,491 8.0 -12.3°
